Location: Stony Creek
(40.9500°S, 175.8500°E)
Time: 09:37:58
(UTC+00:00)

Cosmos 1809 Rocket - Pass Details

Date: 15 May 2026
Orbit: 941 x 962 km, 82.5° (Epoch: 10 June)

Event Time Altitude Azimuth Distance (km) Brightness Sun altitude
Rises 17:09:47 0° 188° (S) 3,643 7.4 -24.1°
Reaches altitude 10° 17:12:18 10° 187° (S) 2,692 6.7 -23.6°
Maximum altitude 17:18:29 86° 96° (E) 960 4.4 -22.4°
Drops below altitude 10° 17:24:36 10° 8° (N) 2,666 7.0 -21.3°
Sets 17:27:04 0° 7° (N) 3,606 7.7 -20.8°
